Regional Weather Roundup
Issued by NWS

Home | Current Version | Previous Version | Graphics & Text | Print | Product List | Glossary On
Versions: 1 2 3 4 5 6 7 8 9 10 11 12 13 14 15 16 17 18 19 20 21 22 23 24 25 26 27 28 29 30 31 32 33 34 35 36 37 38 39 40 41 42 43 44 45 46 47 48 49 50
377
ASUS43 KMKX 020800
RWRWI

WISCONSIN REGIONAL WEATHER ROUNDUP
NATIONAL WEATHER SERVICE MILWAUKEE/SULLIVAN WI
300 AM CDT MON MAY 02 2016

NOTE: "FAIR" INDICATES FEW OR NO CLOUDS BELOW 12,000 FEET WITH NO
SIGNIFICANT WEATHER AND/OR OBSTRUCTIONS TO VISIBILITY.

WIZ001-002-006>008-014>016-023>028-020900-
NORTHWEST WISCONSIN

CITY           SKY/WX    TMP DP  RH WIND       PRES   REMARKS
SUPERIOR ARPT  PTCLDY    28  28  99 CALM      30.15F
ASHLAND        FOG       29  28  96 CALM      30.15S VSB 1/2
HAYWARD        CLEAR     31  28  89 CALM      30.12F
SIREN          CLEAR     33  31  93 CALM      30.13S
CUMBERLAND     CLEAR     37  32  81 CALM      30.11F
RICE LAKE      CLEAR     38  34  84 CALM      30.13S
CHETEK         CLEAR     39  33  80 E5        30.12S
LADYSMITH      PTCLDY    36  33  87 CALM      30.14R
EAU CLAIRE     NOT AVBL
MENOMONIE      PTCLDY    40  31  68 CALM      30.11S
NEW RICHMOND   CLEAR     38  32  78 CALM      30.12S
OSCEOLA        CLEAR     38  32  79 CALM      30.15S
$$

WIZ003>005-009-010-017-018-020900-
NORTH CENTRAL WISCONSIN

CITY           SKY/WX    TMP DP  RH WIND       PRES   REMARKS
MANITOWISH WTR CLEAR     31  31 100 CALM      30.11F
ARBOR VITAE    CLEAR     37  33  87 CALM      30.12S
WOODRUFF       CLEAR     37  33  87 CALM      30.12S
RHINELANDER    CLEAR     34  28  79 CALM      30.12S
EAGLE RIVER    FOG       30  29  97 CALM      30.11S VSB 1
LAND O LAKES   CLEAR     30  29  97 CALM      30.12S
PHILLIPS       CLEAR     33  32  94 CALM      30.11S
TOMAHAWK       CLEAR     31  29  93 CALM      30.13R
MEDFORD        CLEAR     36  33  89 CALM      30.11S
MERRILL        CLEAR     32  32  98 CALM      30.13R
$$

WIZ029-030-035-036-043>047-020900-
CENTRAL WISCONSIN

CITY           SKY/WX    TMP DP  RH WIND       PRES   REMARKS
WAUSAU         PTCLDY    41  35  79 N3        30.10S
MOSINEE        CLEAR     41  34  75 N6        30.12S
MARSHFIELD     CLEAR     40  33  76 CALM      30.11R
STEVENS POINT  PTCLDY    33  32  94 CALM      30.12R
WAUPACA        CLEAR     40  35  84 N3        30.11S
WAUTOMA        CLEAR     34  33  96 CALM      30.12R
WISC RAPIDS    PTCLDY    38  32  79 CALM      30.12S
CAMP DOUGLAS   NOT AVBL
$$

WIZ011>013-019>022-031-037>040-048>050-020900-
NORTHEAST WISCONSIN

CITY           SKY/WX    TMP DP  RH WIND       PRES   REMARKS
ANTIGO         CLEAR     34  32  92 CALM      30.11S
SHAWANO        CLEAR     41  34  76 N3        30.11S
OCONTO         CLEAR     40  34  81 N3        30.09F
STURGEON BAY   CLEAR     41  34  75 N8        30.11S
GREEN BAY      CLEAR     40  35  83 N7        30.10S
MANITOWOC      NOT AVBL
APPLETON       CLEAR     37  32  81 N6        30.08S WCI  33
CLINTONVILLE   CLEAR     39  34  81 CALM      30.11S
OSHKOSH        CLEAR     41  37  86 N3        30.09S
$$

WIZ032>034-041-042-053>061-020900-
SOUTHWEST WISCONSIN

CITY           SKY/WX    TMP DP  RH WIND       PRES   REMARKS
LA CROSSE      PTCLDY    42  38  85 CALM      30.12R
SPARTA         CLEAR     30  29  96 CALM      30.12F
VIROQUA        CLEAR     41  36  83 CALM      30.10S
BOSCOBEL       FOG       39  38  96 CALM      30.11S VSB 1/4
PRAIRIE DU CHI DRZL/FOG  42  41  96 CALM      30.12R VSB 1/4
PLATTEVILLE    MOCLDY    43  42  95 N7        30.07S
$$

WIZ056-057-062-063-064-067-068-020900-
SOUTH CENTRAL WISCONSIN

CITY           SKY/WX    TMP DP  RH WIND       PRES   REMARKS
REEDSBURG      CLEAR     37  36  96 N3        30.10S
BARABOO/DELLS  MOCLDY    37  35  94 CALM      30.10R
LONE ROCK      NOT AVBL
MINERAL POINT  CLOUDY    45  43  93 N6        30.07F
MADISON        CLOUDY    46  41  82 N5        30.08S
MIDDLETON      CLOUDY    47  43  85 CALM      30.09S
WATERTOWN      CLOUDY    46  42  87 N3        30.08R
MONROE         CLOUDY    45  45 100 NE9       30.06S
JANESVILLE     CLOUDY    46  46 100 N7        30.05F
$$

WIZ051-052-058>065-066-070>072-020900-
SOUTHEAST WISCONSIN

CITY           SKY/WX    TMP DP  RH WIND       PRES   REMARKS
MILWAUKEE      CLOUDY    44  40  85 N8        30.07R
WAUKESHA       CLOUDY    43  41  93 N5        30.08R
MILWAUKEE/TIMM CLOUDY    45  37  76 N5        30.08R
RACINE         CLOUDY    43  40  89 N6        30.08R
BURLINGTON     CLOUDY    44  43  97 N5        30.05F
KENOSHA        CLOUDY    44  41  89 N5        30.05F
FOND DU LAC    PTCLDY    42  37  82 NW5       30.08S
SHEBOYGAN      PTCLDY    42  35  76 N5        30.08S
WEST BEND      CLOUDY    43  36  75 CALM      30.08R
JUNEAU         CLOUDY    44  40  85 N3        30.09S
$$

LSZ147-162-020900-
LAKE SUPERIOR

STATION/POSITION TIME  TEMP    WIND        PRES    WAVE
                       AIR SEA DIR/SP/G            HT/PER
                 (UTC) (F)     (DEG/KT/KT) (MB)    (FT/S)
W MID LAKE BUOY  0650   38 36   10/  4/  4 1021.5F   1/ 5
DEVILS ISLAND    0700   39      10/  5/  5 1021.6F
SAXON HARBOR     0700   30     190/  3/  4 1020.3S
$$

LMZ867-665-643>646-020900-
LAKE MICHIGAN

STATION/POSITION TIME  TEMP    WIND        PRES    WAVE
                       AIR SEA DIR/SP/G            HT/PER
                 (UTC) (F)     (DEG/KT/KT) (MB)    (FT/S)
CHAMBERS ISLAND  0700   42     330/  5/  5 1019.3S
N MID LAKE BUOY  0650   40 38  320/  8/  8 1018.6F   1
NORTHPORT PIER   0700   42     330/  8/ 11 1019.0S
KEWAUNEE LAKESHO 0700   44     340/  4/  6 1018.1R
SHEBOYGAN LAKESH 0700   43      10/ 10/ 11 1019.2R
PORT WASHINGTON  0740   46     360/  6/ 11 1019.0S
S MID LAKE BUOY  0650   42 40   40/  8/ 10 1017.0F   2/ 4
KENOSHA   LAKESH 0700   45      10/ 10/ 13 1017.9R
$$

TC  - TEMPERATURE IN CELSIUS
VSB - VISIBILITY IN STATUTE MILES
WCI - WIND CHILL INDEX
HX  - HEAT INDEX





USA.gov is the U.S. government's official web portal to all federal, state and local government web resources and services.